Weather History for Baudette, MN

Change the Weather History Date:

Friday, February 8, 2013

  Actual Average Record
Temperature  
Mean Temperature 12 °F -  
Max Temperature 26 °F 21 °F 46 °F (1991)
Min Temperature -2 °F -6 °F -47 °F (1933)
Degree Days  
Heating Degree Days 53    
Moisture  
Dew Point 6 °F    
Average Humidity 79    
Maximum Humidity 92    
Minimum Humidity 63    
Precipitation  
Precipitation 0.00 in - - ()
Sea Level Pressure  
Sea Level Pressure 30.29 in    
Wind  
Wind Speed 3 mph (SSE)    
Max Wind Speed 12 mph    
Max Gust Speed 17 mph    
Visibility 10 miles    
Events      
Averages and records for this station are not official NWS values.
T = Trace of Precipitation, MM = Missing Value Source: NWS Daily Summary

Daily Weather History Graph

Daily Weather History Graph

Search for Another Location

Airport:

Trip Planner

Search our weather history database for the weather conditions in past years. The results will help you decide how hot, cold, wet, or windy it might be!

Date:

Astronomy

Feb. 08, 2013 Rise Set
Actual Time 7:37 AM CST 5:28 PM CST
Civil Twilight 7:04 AM CST 6:01 PM CST
Nautical Twilight 6:27 AM CST 6:38 PM CST
Astronomical Twilight 5:50 AM CST 7:15 PM CST
Moon 6:10 AM CST (2/8) 4:00 PM CST (2/8)
Length of Visible Light 10h 57m
Length of Day
9h 51m
Waning Crescent, 3% of the Moon is Illuminated
Feb 8
Waning Crescent
Feb 10
New
Feb 17
First Quarter
Feb 25
Full
Mar 4
Last Quarter

Hourly Weather History & Observations

Time (CST) Temp. Windchill Dew Point Humidity Pressure Visibility Wind Dir Wind Speed Gust Speed Precip Events Conditions
12:53 AM 8.1 °F - 5.0 °F 87% 30.36 in 10.0 mi Calm Calm - N/A   Overcast
1:53 AM 5.0 °F - 1.9 °F 87% 30.36 in 10.0 mi Calm Calm - N/A   Mostly Cloudy
2:00 AM 6.8 °F - 3.2 °F 85% 30.28 in 10.0 mi Calm Calm - N/A   Scattered Clouds
2:53 AM 3.0 °F -4.4 °F 1.0 °F 91% 30.36 in 10.0 mi ESE 3.5 mph - N/A   Clear
3:53 AM 1.9 °F -5.6 °F -0.9 °F 88% 30.36 in 10.0 mi SSE 3.5 mph - N/A   Clear
4:53 AM 1.0 °F -6.7 °F -2.0 °F 87% 30.37 in 10.0 mi SE 3.5 mph - N/A   Clear
5:53 AM -0.0 °F - -4.0 °F 83% 30.38 in 10.0 mi Calm Calm - N/A   Clear
6:53 AM -2.0 °F -10.1 °F -5.1 °F 87% 30.38 in 10.0 mi SE 3.5 mph - N/A   Clear
7:20 AM -2.2 °F -10.4 °F -5.8 °F 85% 30.28 in 10.0 mi SE 3.5 mph - N/A   Scattered Clouds
7:29 AM -0.4 °F -8.3 °F -5.8 °F 78% 30.28 in 10.0 mi SE 3.5 mph - N/A   Mostly Cloudy
7:53 AM -0.9 °F -11.0 °F -5.1 °F 83% 30.38 in 10.0 mi SE 4.6 mph - N/A   Overcast
8:53 AM -0.0 °F -7.9 °F -2.0 °F 91% 30.38 in 10.0 mi SE 3.5 mph - N/A   Overcast
9:13 AM 1.4 °F - -0.4 °F 92% 30.28 in 10.0 mi Calm Calm - N/A   Scattered Clouds
9:53 AM 3.0 °F -4.4 °F 1.0 °F 91% 30.37 in 10.0 mi SE 3.5 mph - N/A   Clear
10:53 AM 14.0 °F 5.1 °F 10.0 °F 84% 30.35 in 10.0 mi South 5.8 mph - N/A   Clear
11:53 AM 19.9 °F 11.1 °F 14.0 °F 78% 30.33 in 10.0 mi South 6.9 mph - N/A   Clear
12:53 PM 24.1 °F 13.1 °F 15.1 °F 69% 30.30 in 10.0 mi South 11.5 mph - N/A   Clear
1:53 PM 25.0 °F 16.3 °F 15.1 °F 66% 30.28 in 10.0 mi South 8.1 mph - N/A   Clear
2:53 PM 26.1 °F 19.4 °F 15.1 °F 63% 30.26 in 10.0 mi South 5.8 mph - N/A   Overcast
3:53 PM 26.1 °F 17.6 °F 15.1 °F 63% 30.25 in 10.0 mi South 8.1 mph - N/A   Scattered Clouds
4:53 PM 25.0 °F 16.3 °F 15.1 °F 66% 30.23 in 10.0 mi SSE 8.1 mph - N/A   Mostly Cloudy
5:53 PM 24.1 °F 16.0 °F 15.1 °F 69% 30.22 in 10.0 mi SSE 6.9 mph - N/A   Scattered Clouds
6:53 PM 21.0 °F 13.4 °F 14.0 °F 74% 30.21 in 10.0 mi SE 5.8 mph - N/A   Partly Cloudy
7:53 PM 21.0 °F 10.6 °F 14.0 °F 74% 30.19 in 10.0 mi SE 9.2 mph - N/A   Overcast
8:53 PM 23.0 °F 13.9 °F 14.0 °F 68% 30.17 in 10.0 mi SSE 8.1 mph 17.3 mph N/A   Overcast
9:53 PM 21.0 °F 10.6 °F 12.9 °F 71% 30.17 in 10.0 mi SSE 9.2 mph 17.3 mph N/A   Scattered Clouds
10:53 PM 19.9 °F 11.1 °F 12.9 °F 74% 30.14 in 10.0 mi SE 6.9 mph - N/A   Mostly Cloudy
11:53 PM 21.0 °F 11.4 °F 12.9 °F 71% 30.13 in 10.0 mi South 8.1 mph - N/A   Overcast